Hourly Data Report for December 17, 2021

TORONTO CITY
ONTARIO
Current Station Operator: ECCC - MSC

43°40'00.000" N
79°24'00.000" W
112.50 m
6158355
71508
XTO

Download Data

Hourly Data (December 2021)
Hourly Data Report for December 17, 2021
TIME
LST
Temp Definition
°C
Dew Point Definition
°C
Rel Hum Definition
%
Precip. Amount Definition
mm

Wind Dir Definition
10's deg

Wind Spd Definition
km/h
Visibility Definition
km
Stn Press Definition
kPa
Hmdx Definition


Wind Chill Definition


Weather Definition


00:00 6.0 -2.4 55 0.0       99.78     LegendNANA
01:00 5.7 -2.2 57 0.0       99.87     LegendNANA
02:00 5.4 -2.5 57 0.0       99.96     LegendNANA
03:00 5.1 -2.7 57 0.0       100.10     LegendNANA
04:00 4.5 -2.7 60 0.0       100.19     LegendNANA
05:00 4.0 -3.4 59 0.0       100.27     LegendNANA
06:00 3.5 -3.4 61 0.0       100.36     LegendNANA
07:00 2.6 -3.4 64 0.0       100.46     LegendNANA
08:00 2.8 -3.4 64 0.0       100.52     LegendNANA
09:00 3.0 -3.7 61 0.0       100.60     LegendNANA
10:00 3.7 -3.3 60 0.0       100.68     LegendNANA
11:00 4.4 -3.9 55 0.0       100.70     LegendNANA
12:00 5.3 -4.0 51 0.0       100.69     LegendNANA
13:00 5.6 -4.5 48 0.0       100.70     LegendNANA
14:00 5.1 -4.4 50 0.0       100.75     LegendNANA
15:00 4.7 -4.5 51 0.0       100.85     LegendNANA
16:00 3.4 -5.1 54 0.0       100.87     LegendNANA
17:00 2.5 -5.4 56 0.0       100.95     LegendNANA
18:00 2.2 -5.3 58 0.0       101.07     LegendNANA
19:00 1.7 -5.9 57 0.0       101.09     LegendNANA
20:00 1.4 -5.4 61 0.0       101.13     LegendNANA
21:00 1.0 -5.5 62 0.0       101.13     LegendNANA
22:00 0.9 -5.2 64 0.0       101.09     LegendNANA
23:00 1.0 -5.0 64 0.0       101.05     LegendNANA

Notes on Data Quality.

Legend

  • E = Estimated
  • M = Missing
  • NA = Not Available*
  • [empty] = Indicates an unobserved value
Date modified: